OBJECT G, 67752

Orbit data source: Space-Track

You're viewing an Uncataloged Satellite

Recently launched and/or uncataloged satellites may have evolving metadata. Metadata may include but not limited to: Owner, Maufacturer, Bus, Motor, and Mission.

OBJECT G, 67752 is a Chinese satellite in SSO that was launched on Thu, 12 Feb 2026 UTC via a JIELONG-3 launch vehicle from the South China Sea Launch Area (SCSLA). Unknown objects in Earth's orbit typically refer to objects detected orbiting the Earth but have not yet been identified or cataloged. These objects could be anything from previously untracked satellites, spent rocket stages, debris from satellite collisions, or even natural meteoroids temporarily captured by Earth's gravity.

Loading next visibility...
Identifier
67752, 2026-027G
Orbit
SSO
Country
Flag of CNCN / PRC
Related business
None
Manufacturer
Unknown
Mission
Operational spacecraft
Bus & Motor
Unknown
Mass
Unknown
Launch date (UTC)
2026-02-12 (1 month ago)
Launch vehicle
JIELONG-3
Launch site
South China Sea Launch Area (SCSLA)
Object type
Unknown
Shape & HBR
Unknown
Radar Cross Section
RCS unknown

Expand to show TLE details & history
Last TLE update: 9 hours ago

TLE from 9 hours ago
0 OBJECT G
1 67752U 26027G   26071.95614440  .00008518  00000-0  49601-3 0  9998
2 67752  97.4911 200.8869 0012153 215.6428 144.3992 15.12201746  4356
Epoch: 2026-03-12T22:56Z
TLE epoch observation values (Epoch: 2026-03-12T22:56:50.876Z)
Latitude
-0.00003°
Longitude
46.07632°
Altitude
539.395 km
Speed
7.589 km/s
True Right ascension
13h 23m 32s
True Declination
0° 00' 00"
Sunlit
Object was in full shadow at epoch
Visualization orbit readout
Latitude
Unknown
Longitude
Unknown
Altitude
Unknown
Speed
Unknown
Apparent Right ascension
Unknown
Apparent Declination
Unknown
Sunlit
N/A
Visualization observer readout
Local Sidereal Time
12:21:39
Azimuth
Unknown
Elevation
Unknown
Doppler factor
Unknown
Orbital elements
Apogee altitude
534.858 km
Perigee altitude
518.076 km
Semi-major axis
6,904.604 km
Eccentricity
0.00122
Inclination
97.4911°
RAAN
200.8869°
Arg. of periapsis
215.6428°
True anomaly
144.48017°
Mean anomaly
144.3992°
Eccentric anomaly
144.43969°
Mean motion
3.78299 °/min
Orbital period
95.16 mins
BSTAR
0.00049601
Loading maneuver chart data...
Computing Atmospheric mass density...
Loading historical data...
Loading historical data...
Loading historical data...
Loading historical data...
Loading historical data...
Loading historical data...
Loading historical data...

Documentation

Showing up to 5 results
|